Regional Weather Roundup
Issued by NWS

Home | Current Version | Previous Version | Text Only | Print | Product List | Glossary On
Versions: 1 2 3 4 5 6 7 8 9 10 11 12 13 14 15 16 17 18 19 20 21 22 23 24 25 26 27 28 29 30 31 32 33 34 35 36 37 38 39 40 41 42 43 44 45 46 47 48 49 50
000
ASUS44 KMEG 301310
RWRTN
TENNESSEE HOURLY STATE WEATHER ROUNDUP
NATIONAL WEATHER SERVICE MEMPHIS TN
800 AM CDT SAT MAY 30 2015

TNZ002-004-019-021-049-052-054-088>092-301400-
WEST TENNESSEE

CITY           SKY/WX    TMP DP  RH WIND       PRES   REMARKS
MEMPHIS INTL   MOSUNNY   73  68  84 S13       30.00F
NWS MEMPHIS      N/A     71 N/A N/A MISG        N/A
JACKSON        PTSUNNY   75  67  76 S8        30.03S
DYERSBURG      PTSUNNY   73  57  56 S6        30.01R
PARIS          PTSUNNY   72  66  83 S9        30.04R
LEXINGTON      PTSUNNY   72  66  83 S7        30.05S
$$

TNZ008-025-027-028-033-062-065-066-301400-
NORTH MIDDLE TENNESSEE

CITY           SKY/WX    TMP DP  RH WIND       PRES   REMARKS
NASHVILLE      MOSUNNY   75  66  73 S8        30.10R
CLARKSVILLE    PTSUNNY   72  67  84 S8        30.05R
SMYRNA         SUNNY     75  67  76 S8        30.10S
COOKEVILLE     MOSUNNY   73  66  78 S8          N/A
CROSSVILLE     MOSUNNY   71  62  73 VRB7      30.19S
$$

TNZ061-075-076-078-094-096-097-301400-
SOUTH MIDDLE TENNESSEE

CITY           SKY/WX    TMP DP  RH WIND       PRES   REMARKS
FAYETTEVILLE   SUNNY    N/A N/A N/A MISG      30.12S
TULLAHOMA      SUNNY     72  63  73 S7        30.13F
WINCHESTER     SUNNY     73  64  73 SE8       30.13F
MCMINNVILLE    SUNNY     75  66  73 VRB5      30.13F
COLUMBIA       PTSUNNY   73  70  88 S7        30.08S
SHELBYVILLE    SUNNY     75  66  73 S10       30.12R
$$

TNZ017-018-042-046-047-301400-
NORTHEAST TENNESSEE

CITY           SKY/WX    TMP DP  RH WIND       PRES   REMARKS
TRI CITIES     MOSUNNY   70  63  78 CALM      30.22S
ELIZABETHTON   SUNNY     68  63  83 VRB3      30.23S
$$

TNZ012-013-036-069-073-074-301400-
CENTRAL EAST TENNESSEE

CITY           SKY/WX    TMP DP  RH WIND       PRES   REMARKS
KNOXVILLE      MOSUNNY   69  63  81 E5        30.18R
OAK RIDGE      PTSUNNY   74  65  73 CALM      30.19S
GATLINBURG     MOSUNNY   64  63  94 CALM      30.19S
MORRISTOWN     SUNNY     72  64  78 CALM      30.21S
$$

TNZ083-085-099-301400-
SOUTHEAST TENNESSEE

CITY           SKY/WX    TMP DP  RH WIND       PRES   REMARKS
CHATTANOOGA    MOSUNNY   73  63  70 SE3       30.17S
$$

SKY/WX REPORTED AS FAIR MEANS FEW OR NO CLOUDS BELOW
12 THOUSAND FEET.




USA.gov is the U.S. government's official web portal to all federal, state and local government web resources and services.